Weather History for KSTP - October, 2013

Change the Weather History Date:

Wednesday, October 16, 2013

  Actual Average Record
Temperature  
Mean Temperature 46 °F -  
Max Temperature 54 °F 57 °F 75 °F (1996)
Min Temperature 39 °F 37 °F 24 °F (2002)
Degree Days  
Heating Degree Days 18    
Moisture  
Dew Point 39 °F    
Average Humidity 77    
Maximum Humidity 93    
Minimum Humidity 51    
Precipitation  
Precipitation 0.00 in - - ()
Sea Level Pressure  
Sea Level Pressure 29.91 in    
Wind  
Wind Speed 10 mph (NW)    
Max Wind Speed 15 mph    
Max Gust Speed 21 mph    
Visibility 10 miles    
Events      
Averages and records for this station are not official NWS values.
T = Trace of Precipitation, MM = Missing Value Source: NWS Daily Summary

Daily Weather History Graph

Daily Weather History Graph

Search for Another Location

Airport or City:

Trip Planner

Search our weather history database for the weather conditions in past years. The results will help you decide how hot, cold, wet, or windy it might be!

Date:

Astronomy

Oct. 16, 2013 Rise Set
Actual Time 7:29 AM CDT 6:25 PM CDT
Civil Twilight 6:59 AM CDT 6:54 PM CDT
Nautical Twilight 6:25 AM CDT 7:28 PM CDT
Astronomical Twilight 5:51 AM CDT 8:02 PM CDT
Moon 5:09 PM CDT (10/16) 4:52 AM CDT (10/16)
Length of Visible Light 11h 54m
Length of Day
10h 55m
Waxing Gibbous, 94% of the Moon is Illuminated
Oct 16
Waxing Gibbous
Oct 18
Full
Oct 26
Last Quarter
Nov 3
New
Nov 9
First Quarter

Hourly Weather History & Observations

Time (CDT) Temp. Windchill Dew Point Humidity Pressure Visibility Wind Dir Wind Speed Gust Speed Precip Events Conditions
12:53 AM 46.9 °F - 43.0 °F 86% 29.84 in 7.0 mi NNW 15.0 mph 20.7 mph N/A   Overcast
1:05 AM 46.4 °F 40.7 °F 42.8 °F 87% 29.84 in 7.0 mi NNW 12.7 mph - N/A   Overcast
1:35 AM 46.4 °F 40.7 °F 42.8 °F 87% 29.85 in 10.0 mi NNW 12.7 mph - N/A   Overcast
1:53 AM 46.0 °F 40.2 °F 43.0 °F 89% 29.86 in 7.0 mi NNW 12.7 mph - N/A   Overcast
2:53 AM 46.0 °F 40.2 °F 43.0 °F 89% 29.88 in 6.0 mi NNW 12.7 mph - 0.00 in   Overcast
3:53 AM 45.0 °F 38.9 °F 42.1 °F 90% 29.89 in 10.0 mi NNW 12.7 mph 20.7 mph N/A   Overcast
4:53 AM 45.0 °F 38.5 °F 42.1 °F 90% 29.90 in 10.0 mi NNW 13.8 mph 20.7 mph N/A   Overcast
5:24 AM 46.4 °F 40.1 °F 41.0 °F 81% 29.90 in 10.0 mi NNW 15.0 mph - N/A   Overcast
5:53 AM 45.0 °F 39.7 °F 41.0 °F 86% 29.91 in 10.0 mi NNW 10.4 mph 18.4 mph N/A   Overcast
6:53 AM 45.0 °F 39.3 °F 41.0 °F 86% 29.92 in 10.0 mi NNW 11.5 mph - N/A   Overcast
7:53 AM 45.0 °F 41.8 °F 41.0 °F 86% 29.94 in 10.0 mi NW 5.8 mph - N/A   Overcast
8:53 AM 45.0 °F 40.1 °F 41.0 °F 86% 29.95 in 10.0 mi NW 9.2 mph - N/A   Overcast
9:53 AM 45.0 °F 38.9 °F 39.0 °F 80% 29.96 in 10.0 mi NNW 12.7 mph - N/A   Overcast
10:53 AM 46.0 °F 41.9 °F 39.0 °F 76% 29.97 in 10.0 mi North 8.1 mph - N/A   Overcast
11:53 AM 46.0 °F 41.4 °F 39.0 °F 76% 29.97 in 10.0 mi West 9.2 mph - N/A   Overcast
12:53 PM 46.9 °F - 37.9 °F 71% 29.97 in 10.0 mi West 6.9 mph - N/A   Overcast
1:53 PM 50.0 °F - 39.0 °F 66% 29.95 in 10.0 mi Variable 4.6 mph - N/A   Mostly Cloudy
2:28 PM 51.8 °F - 37.4 °F 58% 29.93 in 10.0 mi Variable 5.8 mph - N/A   Overcast
2:53 PM 53.1 °F - 39.0 °F 59% 29.92 in 10.0 mi Variable 4.6 mph - N/A   Overcast
3:53 PM 54.0 °F - 36.0 °F 51% 29.91 in 10.0 mi NW 10.4 mph 18.4 mph N/A   Scattered Clouds
4:53 PM 54.0 °F - 37.0 °F 53% 29.91 in 10.0 mi NW 6.9 mph - N/A   Clear
5:53 PM 52.0 °F - 35.1 °F 53% 29.91 in 10.0 mi West 8.1 mph - N/A   Clear
6:53 PM 48.0 °F - 36.0 °F 63% 29.92 in 10.0 mi WSW 4.6 mph - N/A   Clear
7:53 PM 48.0 °F - 36.0 °F 63% 29.92 in 10.0 mi Calm Calm - N/A   Clear
8:53 PM 43.0 °F - 37.9 °F 82% 29.92 in 10.0 mi Calm Calm - N/A   Clear
9:53 PM 41.0 °F - 37.0 °F 86% 29.92 in 10.0 mi Calm Calm - N/A   Clear
10:53 PM 39.9 °F - 37.9 °F 93% 29.92 in 10.0 mi Calm Calm - N/A   Clear
11:53 PM 39.0 °F 36.8 °F 36.0 °F 89% 29.91 in 9.0 mi SSE 3.5 mph - N/A   Clear